contact:dominique.lefevre@mio.osupytheas.fr, maurice.libes@osupytheas.fr
Project:EMSO Ligure-ouest http://www.emso-fr.org/EMSO-France
Sensor Aquadopp, line 13 Serial AQD14315 
DOI : "https://doi.org/10.17882/74513; https://doi.org/10.17882/83244" 
Title:EMSO Ligure Ouest : Data ligne ALBATROSS capteur AQUADOPP - deploiement 2021
Id,Date,Profondeur,Latitude,Longitude,X_East,Y_North,Z_Up,Amplitude_X,Amplitude_Y,Amplitude_Z,Batterie,SoundSpeed,Heading,Pitch,Roll,Pressure,Temperature,Speed,Direction
, , m, degrees North, degrees East, m.s-1, m.s-1,m.s-1, 1, 1, 1, Volt, m.s-1, degree, degree, degree, dbar, degree_C, m.s-1, degree
11,2022-03-06T22:00:00,2200.0,42.79,6.0312,0.011,-0.046,0.003,58.0,64.0,65.0,12.2,1504.3,294.6,-0.2,0.0,2192.924,13.17,0.047,166.6
11,2022-03-06T22:30:00,2200.0,42.79,6.0312,0.004,-0.038,0.033,58.0,61.0,64.0,12.2,1504.3,303.7,-0.2,-0.1,2192.888,13.17,0.038,174.0
11,2022-03-06T23:00:00,2200.0,42.79,6.0312,0.001,-0.037,0.01,58.0,63.0,62.0,12.2,1504.3,286.8,-0.6,0.0,2192.871,13.17,0.037,178.5
11,2022-03-06T23:30:00,2200.0,42.79,6.0312,0.009,-0.029,0.012,61.0,64.0,66.0,12.2,1504.3,293.0,-0.2,-0.1,2192.891,13.17,0.03,162.8
11,2022-03-07T00:00:00,2200.0,42.79,6.0312,0.005,-0.041,-0.005,64.0,65.0,69.0,12.2,1504.3,271.4,0.0,-0.1,2192.855,13.17,0.041,173.0
11,2022-03-07T00:30:00,2200.0,42.79,6.0312,-0.009,-0.046,0.017,63.0,66.0,66.0,12.2,1504.3,278.1,-0.6,-0.1,2192.857,13.17,0.046,191.1
11,2022-03-07T01:00:00,2200.0,42.79,6.0312,-0.017,-0.04,0.006,63.0,64.0,65.0,12.2,1504.3,290.1,-0.1,0.0,2192.835,13.17,0.043,203.0
11,2022-03-07T01:30:00,2200.0,42.79,6.0312,-0.008,-0.045,-0.004,63.0,65.0,71.0,12.2,1504.3,289.1,-0.1,-0.3,2192.825,13.17,0.045,190.1
11,2022-03-07T02:00:00,2200.0,42.79,6.0312,-0.025,-0.029,0.013,64.0,67.0,68.0,12.2,1504.3,294.6,-0.4,0.1,2192.861,13.17,0.038,220.8
11,2022-03-07T02:30:00,2200.0,42.79,6.0312,-0.012,-0.032,0.007,63.0,67.0,66.0,12.2,1504.3,285.1,-0.5,-0.1,2192.799,13.17,0.034,200.6
11,2022-03-07T03:00:00,2200.0,42.79,6.0312,-0.02,-0.022,0.014,64.0,65.0,67.0,12.2,1504.3,288.0,-0.3,0.0,2192.755,13.17,0.029,222.3
11,2022-03-07T03:30:00,2200.0,42.79,6.0312,-0.026,-0.04,0.002,65.0,67.0,71.0,12.2,1504.3,282.8,-0.3,0.1,2192.756,13.17,0.047,213.0
11,2022-03-07T04:00:00,2200.0,42.79,6.0312,-0.034,-0.009,0.007,65.0,68.0,71.0,12.2,1504.3,292.0,0.0,-0.3,2192.724,13.17,0.035,255.2
11,2022-03-07T04:30:00,2200.0,42.79,6.0312,-0.032,-0.017,-0.007,67.0,68.0,70.0,12.2,1504.3,279.8,-0.3,-0.1,2192.723,13.17,0.036,242.0
11,2022-03-07T05:00:00,2200.0,42.79,6.0312,-0.028,-0.024,-0.004,66.0,70.0,70.0,12.2,1504.3,280.2,-0.3,0.1,2192.707,13.17,0.036,229.4
11,2022-03-07T05:30:00,2200.0,42.79,6.0312,-0.024,-0.013,0.004,65.0,68.0,69.0,12.2,1504.3,285.3,0.1,-0.2,2192.775,13.17,0.027,241.6
11,2022-03-07T06:00:00,2200.0,42.79,6.0312,-0.02,0.0,0.002,67.0,67.0,70.0,12.2,1504.3,279.0,-0.4,-0.3,2192.81,13.17,0.02,270.0
11,2022-03-07T06:30:00,2200.0,42.79,6.0312,-0.024,-0.012,0.0,67.0,68.0,70.0,12.2,1504.3,275.9,-0.3,-0.1,2192.804,13.17,0.026,243.4
11,2022-03-07T07:00:00,2200.0,42.79,6.0312,-0.03,-0.002,0.008,67.0,70.0,74.0,12.2,1504.3,273.2,-0.4,-0.1,2192.808,13.17,0.03,266.2
11,2022-03-07T07:30:00,2200.0,42.79,6.0312,-0.021,0.008,0.003,66.0,69.0,71.0,12.2,1504.3,268.4,-0.1,0.1,2192.879,13.17,0.022,290.9
11,2022-03-07T08:00:00,2200.0,42.79,6.0312,-0.016,0.006,-0.007,63.0,70.0,70.0,12.2,1504.3,271.0,-0.2,-0.3,2192.871,13.17,0.017,290.6
11,2022-03-07T08:30:00,2200.0,42.79,6.0312,-0.02,0.013,0.004,65.0,69.0,71.0,12.2,1504.3,270.5,-0.1,0.0,2192.882,13.17,0.023,303.0
11,2022-03-07T09:00:00,2200.0,42.79,6.0312,0.003,0.003,0.01,67.0,69.0,71.0,12.2,1504.3,275.1,-0.4,-0.2,2192.956,13.17,0.004,45.0
11,2022-03-07T09:30:00,2200.0,42.79,6.0312,-0.004,0.011,0.006,65.0,69.0,69.0,12.2,1504.3,280.8,-0.2,0.1,2192.899,13.17,0.011,340.0
11,2022-03-07T10:00:00,2200.0,42.79,6.0312,0.006,0.012,0.011,65.0,70.0,73.0,12.2,1504.3,287.0,0.0,-0.2,2192.962,13.17,0.013,26.6
11,2022-03-07T10:30:00,2200.0,42.79,6.0312,0.003,0.018,0.004,66.0,69.0,68.0,12.2,1504.3,291.7,-0.4,-0.2,2192.971,13.17,0.018,9.5
11,2022-03-07T11:00:00,2200.0,42.79,6.0312,0.002,0.014,0.019,67.0,71.0,70.0,12.2,1504.3,296.2,-0.2,-0.1,2192.977,13.17,0.014,8.1
11,2022-03-07T11:30:00,2200.0,42.79,6.0312,0.012,0.027,0.019,66.0,70.0,70.0,12.2,1504.3,294.6,0.0,-0.3,2192.949,13.17,0.029,24.0
11,2022-03-07T12:00:00,2200.0,42.79,6.0312,0.018,0.023,0.017,66.0,69.0,70.0,12.2,1504.3,296.0,-0.3,0.1,2192.903,13.17,0.029,38.0
11,2022-03-07T12:30:00,2200.0,42.79,6.0312,0.015,0.011,0.018,65.0,68.0,73.0,12.2,1504.3,290.2,0.0,-0.2,2192.881,13.17,0.018,53.7
11,2022-03-07T13:00:00,2200.0,42.79,6.0312,0.015,0.011,0.001,65.0,69.0,70.0,12.2,1504.3,283.0,-0.4,0.0,2192.812,13.17,0.018,53.7
11,2022-03-07T13:30:00,2200.0,42.79,6.0312,0.028,0.011,0.005,67.0,68.0,70.0,12.2,1504.3,282.3,0.0,-0.3,2192.837,13.17,0.03,68.6
11,2022-03-07T14:00:00,2200.0,42.79,6.0312,0.011,0.011,0.014,67.0,72.0,71.0,12.2,1504.3,288.3,-0.3,-0.3,2192.874,13.17,0.015,45.0
11,2022-03-07T14:30:00,2200.0,42.79,6.0312,0.031,0.013,0.004,67.0,70.0,71.0,12.2,1504.3,300.4,-0.4,0.1,2192.795,13.17,0.033,67.3
11,2022-03-07T15:00:00,2200.0,42.79,6.0312,0.027,0.019,0.018,66.0,69.0,73.0,12.2,1504.3,305.6,-0.3,-0.3,2192.84,13.17,0.033,54.9
11,2022-03-07T15:30:00,2200.0,42.79,6.0312,0.032,0.007,0.012,66.0,70.0,71.0,12.2,1504.3,300.2,0.0,-0.2,2192.828,13.17,0.032,77.7
11,2022-03-07T16:30:00,2200.0,42.79,6.0312,0.047,0.0,-0.02,67.0,71.0,72.0,12.2,1504.3,328.4,-0.2,0.1,2192.796,13.17,0.047,90.0
11,2022-03-07T17:00:00,2200.0,42.79,6.0312,0.037,-0.013,0.0,64.0,69.0,69.0,12.2,1504.3,334.6,-0.4,0.0,2192.78,13.17,0.039,109.4
11,2022-03-07T17:30:00,2200.0,42.79,6.0312,0.041,-0.008,0.016,65.0,70.0,69.0,12.2,1504.3,358.7,-0.3,0.1,2192.738,13.17,0.041,101.0
11,2022-03-07T18:00:00,2200.0,42.79,6.0312,0.04,-0.027,0.003,65.0,68.0,71.0,12.2,1504.3,15.8,0.2,-0.2,2192.809,13.17,0.048,124.0
11,2022-03-07T18:30:00,2200.0,42.79,6.0312,0.053,-0.031,0.003,66.0,69.0,71.0,12.2,1504.3,15.1,-0.3,-0.2,2192.802,13.17,0.061,120.3
11,2022-03-07T19:00:00,2200.0,42.79,6.0312,0.046,-0.014,0.011,66.0,71.0,71.0,12.2,1504.3,28.3,0.0,0.2,2192.837,13.17,0.048,106.9
11,2022-03-07T19:30:00,2200.0,42.79,6.0312,0.044,-0.004,0.003,65.0,71.0,70.0,12.2,1504.3,31.4,-0.2,0.2,2192.806,13.17,0.044,95.2
11,2022-03-07T20:00:00,2200.0,42.79,6.0312,0.041,-0.018,0.019,66.0,69.0,72.0,12.2,1504.3,42.4,0.2,0.1,2192.884,13.17,0.044,113.7
11,2022-03-07T20:30:00,2200.0,42.79,6.0312,0.04,-0.018,0.01,65.0,68.0,68.0,12.2,1504.3,41.8,0.0,0.1,2192.867,13.17,0.043,114.2
11,2022-03-07T21:00:00,2200.0,42.79,6.0312,0.029,-0.022,0.026,66.0,68.0,70.0,12.2,1504.3,47.8,-0.2,-0.1,2192.856,13.17,0.036,127.2
